Time,TemperatureF,DewpointF,PressureIn,WindDirection,WindDirectionDegrees,WindSpeedMPH,WindSpeedGustMPH,Humidity,HourlyPrecipIn,Conditions,Clouds,dailyrainin,SoftwareType,DateUTC
2013-02-10 00:07:00,14.5,12.6,30.32,NNW,337,0.0,-999.0,92,-99.99,,,0.00,Acu-Link.com,2013-02-10 05:07:00,
2013-02-10 00:22:00,14.4,12.5,30.32,NNW,337,0.0,-999.0,92,-99.99,,,0.00,Acu-Link.com,2013-02-10 05:22:00,
2013-02-10 00:37:00,14.5,13.1,30.32,North,0,0.0,-999.0,94,-99.99,,,0.00,Acu-Link.com,2013-02-10 05:37:00,
2013-02-10 00:52:00,13.6,11.7,30.32,NNE,22,0.0,-999.0,92,-99.99,,,0.00,Acu-Link.com,2013-02-10 05:52:00,
2013-02-10 01:07:00,13.8,12.4,30.32,North,0,0.0,-999.0,94,-99.99,,,0.00,Acu-Link.com,2013-02-10 06:07:00,
2013-02-10 01:22:00,13.1,10.7,30.33,ENE,67,0.0,-999.0,90,-99.99,,,0.00,Acu-Link.com,2013-02-10 06:22:00,
2013-02-10 01:37:00,13.3,11.4,30.31,NW,315,0.0,-999.0,92,-99.99,,,0.00,Acu-Link.com,2013-02-10 06:37:00,
2013-02-10 01:53:00,12.6,10.2,30.31,ESE,112,0.0,-999.0,90,-99.99,,,0.00,Acu-Link.com,2013-02-10 06:53:00,
2013-02-10 02:08:00,13.5,12.1,30.31,ESE,112,1.7,-999.0,94,-99.99,,,0.00,Acu-Link.com,2013-02-10 07:08:00,
2013-02-10 02:23:00,12.7,11.1,30.31,West,270,0.0,-999.0,93,-99.99,,,0.00,Acu-Link.com,2013-02-10 07:23:00,
2013-02-10 02:38:00,11.7,9.3,30.32,WSW,247,0.0,-999.0,90,-99.99,,,0.00,Acu-Link.com,2013-02-10 07:38:00,
2013-02-10 02:53:00,12.0,9.9,30.32,ESE,112,0.0,-999.0,91,-99.99,,,0.00,Acu-Link.com,2013-02-10 07:53:00,
2013-02-10 03:08:00,11.8,10.4,30.31,SSE,157,0.0,-999.0,94,-99.99,,,0.00,Acu-Link.com,2013-02-10 08:08:00,
2013-02-10 03:23:00,11.8,10.2,30.32,WSW,247,0.0,-999.0,93,-99.99,,,0.00,Acu-Link.com,2013-02-10 08:23:00,
2013-02-10 03:38:00,12.0,10.6,30.32,SE,135,0.0,-999.0,94,-99.99,,,0.00,Acu-Link.com,2013-02-10 08:38:00,
2013-02-10 03:53:00,11.1,9.2,30.33,WSW,247,0.0,-999.0,92,-99.99,,,0.00,Acu-Link.com,2013-02-10 08:53:00,
2013-02-10 04:19:00,11.1,9.2,30.33,SE,135,0.0,-999.0,92,-99.99,,,0.00,Acu-Link.com,2013-02-10 09:19:00,
2013-02-10 04:34:00,10.8,8.5,30.32,SW,225,0.0,-999.0,90,-99.99,,,0.00,Acu-Link.com,2013-02-10 09:34:00,
2013-02-10 04:50:00,10.2,8.3,30.32,NNE,22,0.0,-999.0,92,-99.99,,,0.00,Acu-Link.com,2013-02-10 09:50:00,
2013-02-10 05:05:00,10.2,8.1,30.32,East,90,0.0,-999.0,91,-99.99,,,0.00,Acu-Link.com,2013-02-10 10:05:00,
2013-02-10 05:20:00,9.7,6.6,30.32,WSW,247,0.0,-999.0,87,-99.99,,,0.00,Acu-Link.com,2013-02-10 10:20:00,
2013-02-10 05:35:00,9.1,5.8,30.33,WNW,292,0.0,-999.0,86,-99.99,,,0.00,Acu-Link.com,2013-02-10 10:35:00,
2013-02-10 05:50:00,9.9,8.3,30.34,NNW,337,0.0,-999.0,93,-99.99,,,0.00,Acu-Link.com,2013-02-10 10:50:00,
2013-02-10 06:05:00,9.5,7.2,30.33,WSW,247,0.0,-999.0,90,-99.99,,,0.00,Acu-Link.com,2013-02-10 11:05:00,
2013-02-10 06:20:00,9.0,5.9,30.34,WSW,247,0.0,-999.0,87,-99.99,,,0.00,Acu-Link.com,2013-02-10 11:20:00,
2013-02-10 06:35:00,9.0,6.2,30.34,SSE,157,0.0,-999.0,88,-99.99,,,0.00,Acu-Link.com,2013-02-10 11:35:00,
2013-02-10 06:50:00,8.6,5.5,30.35,NNE,22,0.0,-999.0,87,-99.99,,,0.00,Acu-Link.com,2013-02-10 11:50:00,
2013-02-10 07:06:00,8.4,5.3,30.35,SW,225,1.1,-999.0,87,-99.99,,,0.00,Acu-Link.com,2013-02-10 12:06:00,
2013-02-10 07:21:00,9.0,6.7,30.36,ESE,112,0.0,-999.0,90,-99.99,,,0.00,Acu-Link.com,2013-02-10 12:21:00,
2013-02-10 07:36:00,9.9,7.3,30.37,West,270,0.0,-999.0,89,-99.99,,,0.00,Acu-Link.com,2013-02-10 12:36:00,
2013-02-10 07:51:00,12.2,10.8,30.36,SSE,157,0.0,-999.0,94,-99.99,,,0.00,Acu-Link.com,2013-02-10 12:51:00,
2013-02-10 08:06:00,13.3,11.7,30.37,North,0,0.0,-999.0,93,-99.99,,,0.00,Acu-Link.com,2013-02-10 13:06:00,
2013-02-10 08:21:00,14.5,13.1,30.37,SSE,157,0.0,-999.0,94,-99.99,,,0.00,Acu-Link.com,2013-02-10 13:21:00,
2013-02-10 08:36:00,14.9,13.2,30.37,NNE,22,2.2,-999.0,93,-99.99,,,0.00,Acu-Link.com,2013-02-10 13:36:00,
2013-02-10 08:51:00,16.0,13.1,30.37,ENE,67,2.2,-999.0,88,-99.99,,,0.00,Acu-Link.com,2013-02-10 13:51:00,
2013-02-10 09:06:00,17.6,14.1,30.36,East,90,3.2,-999.0,86,-99.99,,,0.00,Acu-Link.com,2013-02-10 14:06:00,
2013-02-10 09:22:00,19.0,15.0,30.36,SSW,202,2.7,-999.0,84,-99.99,,,0.00,Acu-Link.com,2013-02-10 14:22:00,
2013-02-10 09:37:00,19.8,15.2,30.37,SSE,157,1.7,-999.0,82,-99.99,,,0.00,Acu-Link.com,2013-02-10 14:37:00,
2013-02-10 09:52:00,20.1,15.5,30.36,ENE,67,2.7,-999.0,82,-99.99,,,0.00,Acu-Link.com,2013-02-10 14:52:00,
2013-02-10 10:07:00,21.0,16.7,30.36,SW,225,1.1,-999.0,83,-99.99,,,0.00,Acu-Link.com,2013-02-10 15:07:00,
2013-02-10 10:22:00,22.8,18.1,30.35,WSW,247,3.2,-999.0,82,-99.99,,,0.00,Acu-Link.com,2013-02-10 15:22:00,
2013-02-10 10:37:00,24.4,18.8,30.34,NNE,22,3.2,-999.0,79,-99.99,,,0.00,Acu-Link.com,2013-02-10 15:37:00,
2013-02-10 10:52:00,25.5,19.6,30.34,SSE,157,3.2,-999.0,78,-99.99,,,0.00,Acu-Link.com,2013-02-10 15:52:00,
2013-02-10 11:07:00,27.3,20.4,30.32,ENE,67,2.2,-999.0,75,-99.99,,,0.00,Acu-Link.com,2013-02-10 16:07:00,
2013-02-10 11:22:00,28.2,21.3,30.31,SE,135,3.2,-999.0,75,-99.99,,,0.00,Acu-Link.com,2013-02-10 16:22:00,
2013-02-10 11:38:00,29.1,22.2,30.30,SE,135,2.2,-999.0,75,-99.99,,,0.00,Acu-Link.com,2013-02-10 16:38:00,
2013-02-10 11:53:00,30.4,22.8,30.29,North,0,2.2,-999.0,73,-99.99,,,0.00,Acu-Link.com,2013-02-10 16:53:00,
2013-02-10 12:08:00,30.9,22.6,30.28,ENE,67,3.2,-999.0,71,-99.99,,,0.00,Acu-Link.com,2013-02-10 17:08:00,
2013-02-10 12:23:00,31.5,22.9,30.28,South,180,2.2,-999.0,70,-99.99,,,0.00,Acu-Link.com,2013-02-10 17:23:00,
2013-02-10 12:38:00,32.7,23.7,30.26,South,180,2.7,-999.0,69,-99.99,,,0.00,Acu-Link.com,2013-02-10 17:38:00,
2013-02-10 12:53:00,34.0,24.6,30.26,North,0,1.7,-999.0,68,-99.99,,,0.00,Acu-Link.com,2013-02-10 17:53:00,
2013-02-10 13:08:00,34.5,25.0,30.25,NNE,22,2.2,-999.0,68,-99.99,,,0.00,Acu-Link.com,2013-02-10 18:08:00,
2013-02-10 13:23:00,35.2,25.4,30.24,South,180,3.2,-999.0,67,-99.99,,,0.00,Acu-Link.com,2013-02-10 18:23:00,
2013-02-10 13:38:00,35.6,25.7,30.22,SSE,157,3.2,-999.0,67,-99.99,,,0.00,Acu-Link.com,2013-02-10 18:38:00,
2013-02-10 13:54:00,35.8,25.6,30.21,SE,135,3.7,-999.0,66,-99.99,,,0.00,Acu-Link.com,2013-02-10 18:54:00,
2013-02-10 14:09:00,35.8,25.2,30.21,ESE,112,3.7,-999.0,65,-99.99,,,0.00,Acu-Link.com,2013-02-10 19:09:00,
2013-02-10 14:24:00,35.6,25.0,30.20,ESE,112,2.2,-999.0,65,-99.99,,,0.00,Acu-Link.com,2013-02-10 19:24:00,
2013-02-10 14:39:00,36.3,24.9,30.19,SE,135,2.7,-999.0,63,-99.99,,,0.00,Acu-Link.com,2013-02-10 19:39:00,
2013-02-10 14:54:00,37.4,25.6,30.18,NE,45,3.2,-999.0,62,-99.99,,,0.00,Acu-Link.com,2013-02-10 19:54:00,
2013-02-10 15:09:00,38.1,25.5,30.17,NE,45,4.7,-999.0,60,-99.99,,,0.00,Acu-Link.com,2013-02-10 20:09:00,
2013-02-10 15:24:00,38.7,25.6,30.15,NE,45,6.3,-999.0,59,-99.99,,,0.00,Acu-Link.com,2013-02-10 20:24:00,
2013-02-10 15:39:00,38.3,25.2,30.16,NNW,337,3.2,-999.0,59,-99.99,,,0.00,Acu-Link.com,2013-02-10 20:39:00,
2013-02-10 15:54:00,39.0,25.9,30.15,ESE,112,1.1,-999.0,59,-99.99,,,0.00,Acu-Link.com,2013-02-10 20:54:00,
2013-02-10 16:10:00,38.3,25.6,30.14,NNE,22,2.7,-999.0,60,-99.99,,,0.00,Acu-Link.com,2013-02-10 21:10:00,
2013-02-10 16:25:00,37.4,25.2,30.15,NE,45,2.7,-999.0,61,-99.99,,,0.00,Acu-Link.com,2013-02-10 21:25:00,
2013-02-10 16:40:00,36.9,25.5,30.13,ESE,112,2.2,-999.0,63,-99.99,,,0.00,Acu-Link.com,2013-02-10 21:40:00,
2013-02-10 16:55:00,36.1,25.5,30.13,NE,45,0.0,-999.0,65,-99.99,,,0.00,Acu-Link.com,2013-02-10 21:55:00,
2013-02-10 17:10:00,35.4,25.2,30.12,East,90,3.2,-999.0,66,-99.99,,,0.00,Acu-Link.com,2013-02-10 22:10:00,
2013-02-10 17:25:00,34.2,24.8,30.12,NE,45,4.2,-999.0,68,-99.99,,,0.00,Acu-Link.com,2013-02-10 22:25:00,
2013-02-10 17:40:00,33.4,24.3,30.11,SSW,202,0.0,-999.0,69,-99.99,,,0.00,Acu-Link.com,2013-02-10 22:40:00,
2013-02-10 17:55:00,33.4,24.3,30.12,NNW,337,2.2,-999.0,69,-99.99,,,0.00,Acu-Link.com,2013-02-10 22:55:00,
2013-02-10 18:10:00,33.3,24.2,30.12,ESE,112,1.7,-999.0,69,-99.99,,,0.00,Acu-Link.com,2013-02-10 23:10:00,
2013-02-10 18:26:00,33.3,23.9,30.10,NNE,22,2.7,-999.0,68,-99.99,,,0.00,Acu-Link.com,2013-02-10 23:26:00,
2013-02-10 18:41:00,33.3,23.9,30.10,West,270,0.0,-999.0,68,-99.99,,,0.00,Acu-Link.com,2013-02-10 23:41:00,
2013-02-10 18:56:00,33.3,23.9,30.11,SE,135,0.0,-999.0,68,-99.99,,,0.00,Acu-Link.com,2013-02-10 23:56:00,
2013-02-10 19:11:00,33.3,23.9,30.10,NNE,22,0.0,-999.0,68,-99.99,,,0.00,Acu-Link.com,2013-02-11 00:11:00,
2013-02-10 19:26:00,33.3,23.9,30.10,ENE,67,0.0,-999.0,68,-99.99,,,0.00,Acu-Link.com,2013-02-11 00:26:00,
2013-02-10 19:41:00,33.1,24.7,30.09,ESE,112,0.0,-999.0,71,-99.99,,,0.00,Acu-Link.com,2013-02-11 00:41:00,
2013-02-10 19:56:00,32.9,25.2,30.09,NNE,22,0.0,-999.0,73,-99.99,,,0.00,Acu-Link.com,2013-02-11 00:56:00,
2013-02-10 20:11:00,32.7,25.3,30.08,SE,135,0.0,-999.0,74,-99.99,,,0.00,Acu-Link.com,2013-02-11 01:11:00,
2013-02-10 20:26:00,32.7,24.7,30.08,NE,45,2.2,-999.0,72,-99.99,,,0.00,Acu-Link.com,2013-02-11 01:26:00,
2013-02-10 20:41:00,33.1,24.1,30.08,East,90,1.7,-999.0,69,-99.99,,,0.00,Acu-Link.com,2013-02-11 01:41:00,
2013-02-10 20:57:00,33.6,23.8,30.07,NNE,22,2.2,-999.0,67,-99.99,,,0.00,Acu-Link.com,2013-02-11 01:57:00,
2013-02-10 21:12:00,34.2,23.7,30.07,NNE,22,2.2,-999.0,65,-99.99,,,0.00,Acu-Link.com,2013-02-11 02:12:00,
2013-02-10 21:27:00,34.2,22.9,30.07,NE,45,2.2,-999.0,63,-99.99,,,0.00,Acu-Link.com,2013-02-11 02:27:00,
2013-02-10 21:42:00,34.5,22.8,30.06,ENE,67,2.2,-999.0,62,-99.99,,,0.00,Acu-Link.com,2013-02-11 02:42:00,
2013-02-10 21:57:00,34.5,22.5,30.07,NNE,22,2.7,-999.0,61,-99.99,,,0.00,Acu-Link.com,2013-02-11 02:57:00,
2013-02-10 22:12:00,34.3,22.7,30.05,NE,45,1.1,-999.0,62,-99.99,,,0.00,Acu-Link.com,2013-02-11 03:12:00,
2013-02-10 22:27:00,34.3,22.3,30.05,NNE,22,1.7,-999.0,61,-99.99,,,0.00,Acu-Link.com,2013-02-11 03:27:00,
2013-02-10 22:42:00,34.0,22.4,30.06,NNE,22,0.0,-999.0,62,-99.99,,,0.00,Acu-Link.com,2013-02-11 03:42:00,
2013-02-10 22:57:00,34.2,22.6,30.05,SE,135,0.0,-999.0,62,-99.99,,,0.00,Acu-Link.com,2013-02-11 03:57:00,
2013-02-10 23:13:00,34.0,22.4,30.04,NNW,337,1.1,-999.0,62,-99.99,,,0.00,Acu-Link.com,2013-02-11 04:13:00,
2013-02-10 23:28:00,34.5,22.8,30.04,NNE,22,3.7,-999.0,62,-99.99,,,0.00,Acu-Link.com,2013-02-11 04:28:00,
2013-02-10 23:43:00,34.7,21.9,30.03,ESE,112,1.7,-999.0,59,-99.99,,,0.00,Acu-Link.com,2013-02-11 04:43:00,
2013-02-10 23:58:00,34.9,22.8,30.03,NE,45,2.7,-999.0,61,-99.99,,,0.00,Acu-Link.com,2013-02-11 04:58:00,